Date String (YYYY-MM-DD hh:mm:ss) UTC,Instrument flags,Ambient pressure (hPa),Sample flow (lpm),Bypass flow (lpm),Sample temperature (°C),Ambient temperature (°C),ASC tube jacket temperature (°C),LED temperature (°C),Box temperature (°C),Sample RH (%),Span deviation,Mass concentration (μg/m³),Mass concentration (μg/m³),Mass concentration (μg/m³)
DateTimeUTC,F1_M11,P_M11,Q1_M11,Q2_M11,T1_M11,T2_M11,T3_M11,T4_M11,T5_M11,U1_M11,ZSPAN_M11,X0_M11,X2_M11,X1_M11
2023-05-26 02:00:00,,0828.6,5.00,0.00,29.5,28.1,00.0,37.8,31.2,25.4,0000.0,0008.79,0003.54,0002.79
2023-05-26 02:01:00,,0828.6,5.01,0.00,29.5,28.1,00.0,37.8,31.2,25.0,0000.0,0007.70,0003.55,0002.78
2023-05-26 02:02:00,,0828.6,4.99,0.00,29.5,28.1,00.0,37.8,31.2,24.8,0000.0,0007.66,0003.55,0002.77
2023-05-26 02:03:00,,0828.6,4.99,0.00,29.5,28.2,00.0,37.8,31.2,25.0,0000.0,0007.85,0003.53,0002.75
2023-05-26 02:04:00,,0828.6,4.99,0.00,29.5,28.2,00.0,37.8,31.2,24.8,0000.0,0007.98,0003.54,0002.73
2023-05-26 02:05:00,,0828.6,5.00,0.00,29.6,28.2,00.0,37.9,31.2,25.0,0000.0,0008.01,0003.58,0002.71
2023-05-26 02:06:00,,0828.6,5.01,0.00,29.6,28.2,00.0,37.9,31.2,25.3,0000.0,0007.96,0003.54,0002.68
2023-05-26 02:07:00,,0828.6,5.01,0.00,29.6,28.2,00.0,37.9,31.2,24.8,0000.0,0007.86,0003.53,0002.66
2023-05-26 02:08:00,,0828.6,5.00,0.00,29.6,28.2,00.0,37.9,31.2,24.3,0000.0,0007.62,0003.53,0002.64
2023-05-26 02:09:00,,0828.6,5.00,0.00,29.6,28.2,00.0,37.9,31.2,23.7,0000.0,0007.67,0003.54,0002.62
2023-05-26 02:10:00,,0828.6,5.00,0.00,29.6,28.2,00.0,37.9,31.2,24.5,0000.0,0007.54,0003.51,0002.59
2023-05-26 02:11:00,,0828.6,5.00,0.00,29.6,28.2,00.0,37.9,31.3,24.6,0000.0,0007.16,0003.45,0002.56
2023-05-26 02:12:00,,0828.6,5.00,0.00,29.6,28.2,00.0,37.9,31.3,24.7,0000.0,0006.98,0003.42,0002.56
2023-05-26 02:13:00,,0828.6,5.00,0.00,29.6,28.2,00.0,37.9,31.3,24.6,0000.0,0006.71,0003.40,0002.57
2023-05-26 02:14:00,,0828.6,5.00,0.00,29.7,28.2,00.0,38.0,31.3,24.0,0000.0,0006.55,0003.41,0002.58
2023-05-26 02:15:00,,0828.6,4.98,0.00,29.7,28.2,00.0,38.0,31.3,23.6,0000.0,0006.04,0003.40,0002.60
2023-05-26 02:16:00,,0828.6,5.00,0.00,29.7,28.2,00.0,38.0,31.3,23.8,0000.0,0005.64,0003.35,0002.60
2023-05-26 02:17:00,,0828.6,5.00,0.00,29.7,28.3,00.0,38.0,31.3,23.8,0000.0,0005.52,0003.33,0002.61
2023-05-26 02:18:00,,0828.5,5.00,0.00,29.7,28.2,00.0,38.0,31.3,23.8,0000.0,0005.55,0003.33,0002.64
2023-05-26 02:19:00,,0828.6,5.00,0.00,29.7,28.2,00.0,38.0,31.3,23.9,0000.0,0005.65,0003.31,0002.66
2023-05-26 02:20:00,,0828.6,5.00,0.00,29.7,28.2,00.0,38.0,31.3,24.0,0000.0,0005.73,0003.29,0002.69
2023-05-26 02:21:00,,0828.5,5.01,0.00,29.7,28.2,00.0,38.0,31.3,23.9,0000.0,0006.23,0003.31,0002.74
2023-05-26 02:22:00,,0828.6,5.00,0.00,29.7,28.2,00.0,38.0,31.3,24.0,0000.0,0006.58,0003.32,0002.77
2023-05-26 02:23:00,,0828.5,5.00,0.00,29.7,28.2,00.0,38.0,31.3,23.9,0000.0,0006.92,0003.37,0002.80
2023-05-26 02:24:00,,0828.6,4.98,0.00,29.7,28.2,00.0,38.0,31.3,23.9,0000.0,0007.24,0003.43,0002.81
2023-05-26 02:25:00,,0828.6,4.99,0.00,29.7,28.3,00.0,38.0,31.3,23.9,0000.0,0007.42,0003.49,0002.83
2023-05-26 02:26:00,,0828.6,5.01,0.00,29.7,28.3,00.0,38.1,31.3,23.6,0000.0,0007.60,0003.50,0002.84
2023-05-26 02:27:00,,0828.6,5.01,0.00,29.7,28.3,00.0,38.1,31.3,23.5,0000.0,0007.65,0003.49,0002.83
2023-05-26 02:28:00,,0828.7,5.01,0.00,29.7,28.3,00.0,38.1,31.3,23.3,0000.0,0007.74,0003.52,0002.85
2023-05-26 02:29:00,,0828.7,5.00,0.00,29.7,28.3,00.0,38.1,31.4,23.4,0000.0,0007.78,0003.54,0002.86
2023-05-26 02:30:00,,0828.7,4.99,0.00,29.7,27.4,00.0,38.0,31.2,22.9,0000.0,0007.80,0003.56,0002.87
2023-05-26 02:31:00,,0828.7,5.01,0.00,29.7,25.7,00.0,38.0,31.0,22.7,0000.0,0008.39,0003.57,0002.86
2023-05-26 02:32:00,,0828.7,5.01,0.00,29.6,25.1,00.0,37.9,30.8,22.8,0000.0,0008.55,0003.57,0002.84
2023-05-26 02:33:00,,0828.7,5.01,0.00,29.5,25.3,00.0,37.9,30.7,23.3,0000.0,0008.59,0003.55,0002.83
2023-05-26 02:34:00,,0828.7,5.00,0.00,29.4,25.6,00.0,37.8,30.7,23.5,0000.0,0008.41,0003.51,0002.83
2023-05-26 02:35:00,,0828.7,5.00,0.00,29.4,26.0,00.0,37.8,30.8,23.6,0000.0,0008.27,0003.48,0002.84
2023-05-26 02:36:00,,0828.7,5.00,0.00,29.3,26.3,00.0,37.8,30.8,23.5,0000.0,0008.21,0003.44,0002.84
2023-05-26 02:37:00,,0828.7,4.99,0.00,29.3,26.6,00.0,37.8,30.8,23.3,0000.0,0008.05,0003.42,0002.82
2023-05-26 02:38:00,,0828.7,5.00,0.00,29.3,26.9,00.0,37.8,30.8,23.1,0000.0,0008.13,0003.44,0002.84
2023-05-26 02:39:00,,0828.6,5.01,0.00,29.3,27.1,00.0,37.8,30.9,22.7,0000.0,0008.05,0003.40,0002.82
2023-05-26 02:40:00,,0828.6,4.99,0.00,29.3,27.3,00.0,37.8,30.9,22.4,0000.0,0007.93,0003.36,0002.76
2023-05-26 02:41:00,,0828.6,4.99,0.00,29.3,27.4,00.0,37.8,30.9,22.2,0000.0,0007.82,0003.31,0002.71
2023-05-26 02:42:00,,0828.6,5.00,0.00,29.3,27.5,00.0,37.8,31.0,22.2,0000.0,0007.37,0003.29,0002.68
2023-05-26 02:43:00,,0828.6,5.00,0.00,29.4,27.6,00.0,37.8,31.0,22.3,0000.0,0006.16,0003.25,0002.63
2023-05-26 02:44:00,,0828.6,5.00,0.00,29.4,27.7,00.0,37.8,31.0,22.3,0000.0,0006.06,0003.25,0002.62
2023-05-26 02:45:00,,0828.6,5.00,0.00,29.4,27.8,00.0,37.8,31.0,22.2,0000.0,0005.88,0003.23,0002.58
2023-05-26 02:46:00,,0828.7,5.00,0.00,29.4,27.8,00.0,37.8,31.0,22.1,0000.0,0005.85,0003.20,0002.52
2023-05-26 02:47:00,,0828.7,5.00,0.00,29.4,27.9,00.0,37.8,31.1,22.4,0000.0,0006.10,0003.18,0002.48
2023-05-26 02:48:00,,0828.7,4.99,0.00,29.4,27.9,00.0,37.8,31.1,22.1,0000.0,0006.05,0003.17,0002.46
2023-05-26 02:49:00,,0828.8,5.00,0.00,29.4,27.9,00.0,37.8,31.1,22.3,0000.0,0005.70,0003.15,0002.41
2023-05-26 02:50:00,,0828.7,5.00,0.00,29.4,27.9,00.0,37.8,31.0,22.7,0000.0,0005.93,0003.18,0002.40
2023-05-26 02:51:00,,0828.8,5.00,0.00,29.4,27.9,00.0,37.8,31.0,22.8,0000.0,0005.97,0003.20,0002.42
2023-05-26 02:52:00,,0828.8,4.99,0.00,29.4,27.9,00.0,37.8,31.0,22.8,0000.0,0006.01,0003.22,0002.43
2023-05-26 02:53:00,,0828.9,5.00,0.00,29.4,27.9,00.0,37.8,31.0,22.8,0000.0,0006.14,0003.24,0002.44
2023-05-26 02:54:00,,0828.9,5.00,0.00,29.4,27.9,00.0,37.8,31.0,22.8,0000.0,0006.09,0003.26,0002.45
2023-05-26 02:55:00,,0829.0,5.00,0.00,29.4,27.8,00.0,37.8,31.0,23.0,0000.0,0006.02,0003.24,0002.44
2023-05-26 02:56:00,,0829.0,5.00,0.00,29.4,27.8,00.0,37.8,31.0,23.3,0000.0,0006.01,0003.23,0002.45
2023-05-26 02:57:00,,0828.9,5.01,0.00,29.4,27.8,00.0,37.8,31.0,23.3,0000.0,0006.26,0003.27,0002.47
2023-05-26 02:58:00,,0828.9,5.01,0.00,29.4,27.7,00.0,37.8,31.0,23.2,0000.0,0005.87,0003.27,0002.48
2023-05-26 02:59:00,,0829.0,5.00,0.00,29.4,27.7,00.0,37.8,30.9,23.3,0000.0,0006.07,0003.27,0002.50
